This is the latest recevied weather packets stored in our database for station/object W4SKW. If no packets are shown the sender has not sent any weather packets the latest 10 day(s).
| Time | Temp. | Humidity | Pressure | Rain* | Wind** | Luminosity | Snow |
|---|---|---|---|---|---|---|---|
| 1777515709 | 21.11° C | 81% | 1013.5 hPa | 0 mm | - | 0 W/m² | - |
| 1777515404 | 21.11° C | 81% | 1013.5 hPa | 0 mm | - | 0 W/m² | - |
| 1777515096 | 21.11° C | 81% | 1013.5 hPa | 0 mm | - | 0 W/m² | - |
| 1777514792 | 20.56° C | 82% | 1013.3 hPa | 0 mm | - | 0 W/m² | - |
| 1777514489 | 20.56° C | 83% | 1013.4 hPa | 0 mm | - | 0 W/m² | - |
| 1777514187 | 21.11° C | 81% | 1013.2 hPa | 0 mm | - | 0 W/m² | - |
| 1777513883 | 21.11° C | 82% | 1012.8 hPa | 0 mm | - | 0 W/m² | - |
| 1777513580 | 21.11° C | 82% | 1012.9 hPa | 0 mm | - | 0 W/m² | - |
| 1777513277 | 21.11° C | 82% | 1012.7 hPa | 0 mm | - | 0 W/m² | - |
| 1777512973 | 20.56° C | 84% | 1012.7 hPa | 0 mm | - | 0 W/m² | - |
| 1777512669 | 21.11° C | 84% | 1012.6 hPa | 0 mm | - | 0 W/m² | - |
| 1777512367 | 21.11° C | 85% | 1012.6 hPa | 0 mm | - | 0 W/m² | - |
| 1777512063 | 21.11° C | 85% | 1012.6 hPa | 0 mm | - | 0 W/m² | - |
| 1777511762 | 21.11° C | 83% | 1012.3 hPa | 0 mm | - | 0 W/m² | - |
| 1777511458 | 20.56° C | 90% | 1012 hPa | 0 mm | - | 0 W/m² | - |
| 1777511154 | 20° C | 91% | 1012.1 hPa | 0 mm | - | 0 W/m² | - |
| 1777510839 | 20.56° C | 92% | 1012.1 hPa | 0 mm | - | 0 W/m² | - |
| 1777510536 | 20.56° C | 92% | 1012.1 hPa | 0 mm | - | 0 W/m² | - |
| 1777510232 | 20.56° C | 91% | 1012 hPa | 0 mm | - | 0 W/m² | - |
| 1777509928 | 20.56° C | 91% | 1011.8 hPa | 0 mm | - | 0 W/m² | - |
| 1777509624 | 20.56° C | 91% | 1011.7 hPa | 0 mm | - | 0 W/m² | - |
| 1777509321 | 20.56° C | 91% | 1011.9 hPa | 0 mm | - | 0 W/m² | - |
| 1777509018 | 21.11° C | 90% | 1011.7 hPa | 0 mm | - | 1 W/m² | - |
| 1777508715 | 21.11° C | 90% | 1011.7 hPa | 0 mm | - | 1 W/m² | - |
| 1777508406 | 21.11° C | 89% | 1011.6 hPa | 0 mm | - | 1 W/m² | - |
* Rain latest hour (hover to see other rain measurements)
** Current wind speed in m/s (hover to see current wind gust speed)